User: anonymous   Login
Location: Unspecified
(0.0000°N, 0.0000°E)
Time: 10:48:13
(UTC+00:00)
Language:

STRELA 3 - Orbit

View from above orbital plane
View from above orbital plane
View from above satellite
View from above satellite

Ground track
Ground track

The orbit data is extracted from the following two-line orbital elements,

1 37153U 10043B   17202.71339702 +.00000029 +00000-0 +14467-3 0  9997
2 37153 082.4600 304.3120 0006270 305.4678 054.5816 12.40725874311084
Epoch (UTC): 21 July 2017 17:07:17
Eccentricity: 0.0006270
inclination: 82.4600°
perigee height: 1498 km
apogee height: 1508 km
right ascension of ascending node: 304.3120°
argument of perigee: 305.4678°
revolutions per day: 12.40725874
mean anomaly at epoch: 54.5816°
orbit number at epoch: 31108

The dashed part of the orbit path shows where the satellite is in the earth's shadow,  

DLR